Location: Koszewko
(53.2876°N, 14.9061°E)
Time: 23:25:25
(UTC+00:00)

Terra - Pass Details

Date: 03 March 2021
Orbit: 701 x 703 km, 98.2° (Epoch: 12 April)

Event Time Altitude Azimuth Distance (km) Brightness Sun altitude
Exits shadow 21:21:34 19° 329° (NNW) 1,636 4.3 -38.1°
Drops below altitude 10° 21:23:03 10° 336° (NNW) 2,185 5.0 -38.2°
Sets 21:25:23 0° 342° (NNW) 3,108 6.0 -38.4°
